Location: Launois
(49.6535°N, 4.5395°E)
Time: 13:00:03
(UTC+00:00)

Resurs 1-4 Rocket - Pass Details

Date: 23 May 2024
Orbit: 798 x 813 km, 98.7° (Epoch: 18 June)

Event Time Altitude Azimuth Distance (km) Brightness Sun altitude
Rises 02:05:08 0° 13° (NNE) 3,319 6.7 -12.6°
Reaches altitude 10° 02:07:28 10° 11° (NNE) 2,384 5.7 -12.3°
Maximum altitude 02:12:43 72° 289° (WNW) 843 2.1 -11.8°
Enters shadow 02:17:06 15° 207° (SSW) 2,048 3.6 -11.4°
